Location: Newark
(0.5333°S, 166.9167°E)
Time: 18:58:55
(UTC+00:00)

ITUPSAT 1 - Visible Passes

Search period start: 20 November 2019 00:00
Search period end: 30 November 2019 00:00
Orbit: 701 x 714 km, 98.6° (Epoch: 19 November)

Date Brightness Start Highest point End Pass type
(mag) Time Alt. Az. Time Alt. Az. Time Alt. Az.
20 Nov ? 07:00:11 10° NW 07:02:53 15° WNW 07:05:36 10° WSW visible
20 Nov ? 17:42:37 10° SSE 17:47:16 52° ENE 17:51:52 10° N visible
21 Nov ? 16:53:48 10° ENE 16:53:54 10° ENE 16:54:00 10° ENE visible
22 Nov ? 17:33:38 10° SE 17:38:03 39° ENE 17:42:28 10° N visible
24 Nov ? 17:24:45 10° SE 17:28:51 29° ENE 17:32:57 10° NNE visible
25 Nov ? 18:08:17 10° S 18:13:02 72° WSW 18:17:45 10° NNW visible
26 Nov ? 17:16:01 10° SE 17:19:39 22° ENE 17:23:17 10° NNE visible
27 Nov ? 17:59:03 10° SSE 18:03:49 85° E 18:08:34 10° N visible
28 Nov ? 17:07:29 10° ESE 17:10:27 17° ENE 17:13:25 10° NE visible
29 Nov ? 07:08:13 10° NW 07:10:15 13° WNW 07:12:18 10° WSW visible
29 Nov ? 17:49:55 10° SSE 17:54:37 63° ENE 17:59:18 10° N visible
